This is the latest recevied weather packets stored in our database for station/object EFTU. If no packets are shown the sender has not sent any weather packets the latest 10 day(s).
| Time | Temp. | Humidity | Pressure | Rain* | Wind** | Luminosity | Snow |
|---|---|---|---|---|---|---|---|
| 1777909636 | 8.33° C | 82% | 1002.1 hPa | - | - | - | - |
| 1777908437 | 8.89° C | 83% | 1002.1 hPa | - | - | - | - |
| 1777907237 | 8.89° C | 82% | 1002 hPa | - | - | - | - |
| 1777906037 | 8.89° C | 81% | 1002.1 hPa | - | - | - | - |
| 1777904837 | 9.44° C | 80% | 1002.2 hPa | - | - | - | - |
| 1777903636 | 8.89° C | 80% | 1002.3 hPa | - | - | - | - |
| 1777902436 | 8.89° C | 81% | 1002.4 hPa | - | - | - | - |
| 1777901236 | 9.44° C | 83% | 1002.5 hPa | - | - | - | - |
| 1777900036 | 8.89° C | 82% | 1002.5 hPa | - | - | - | - |
| 1777898836 | 8.89° C | 84% | 1002.5 hPa | - | - | - | - |
| 1777897636 | 8.89° C | 85% | 1002.6 hPa | - | - | - | - |
| 1777896437 | 8.33° C | 84% | 1002.8 hPa | - | - | - | - |
| 1777895237 | 8.33° C | 86% | 1002.6 hPa | - | - | - | - |
| 1777894036 | 8.33° C | 89% | 1002.7 hPa | - | - | - | - |
| 1777892836 | 8.89° C | 88% | 1002.7 hPa | - | - | - | - |
| 1777891635 | 7.78° C | 86% | 1002.9 hPa | - | - | - | - |
| 1777890436 | 7.78° C | 92% | 1003.1 hPa | - | - | - | - |
| 1777889235 | 6.67° C | 90% | 1003.3 hPa | - | - | - | - |
| 1777888035 | 6.11° C | 89% | 1003.5 hPa | - | - | - | - |
| 1777886836 | 5.56° C | 86% | 1003.8 hPa | - | - | - | - |
| 1777885635 | 5° C | 84% | 1004.1 hPa | - | - | - | - |
| 1777884435 | 5° C | 84% | 1004.6 hPa | - | - | - | - |
| 1777883236 | 5° C | 84% | 1004.8 hPa | - | - | - | - |
| 1777882035 | 5° C | 85% | 1004.9 hPa | - | - | - | - |
| 1777880835 | 5° C | 81% | 1005.1 hPa | - | - | - | - |
* Rain since midnight (hover to see other rain measurements)
** Current wind speed in m/s (hover to see current wind gust speed)